period_start,C,m1,H,J0,J1,J2,J3,J4,J5,JA,JB,JC,JD,JJ,JK,JN,#
2015-08-15 00:00:15,-0.00,0.69,0.00,24.05,27.42,29.77,4.84,25.43,1022.48,2038.99,3185.99,3047.14,3292.91,350.50,349.01,31.40,0000 0000 0000 0000 000000
2015-08-15 00:05:16,0.00,0.69,0.00,24.07,27.42,29.77,4.87,25.44,1022.48,2038.98,3185.99,3047.09,3292.79,350.26,348.55,31.43,0000 0000 0000 0000 000000
2015-08-15 00:10:17,-0.01,0.69,0.00,24.07,27.42,29.77,4.79,25.42,1022.48,2038.98,3185.98,3047.11,3292.81,350.32,348.61,31.46,0000 0000 0000 0000 000000
2015-08-15 00:15:19,0.01,0.69,0.00,24.07,27.42,29.78,4.80,25.42,1022.48,2038.97,3185.99,3047.07,3292.28,350.15,348.59,31.49,0000 0000 0000 0000 000000
2015-08-15 00:20:20,0.01,0.69,0.00,24.07,27.42,29.78,4.85,25.43,1022.48,2038.97,3185.99,3047.05,3292.31,350.16,348.59,31.52,0000 0000 0000 0000 000000
2015-08-15 00:25:20,0.00,0.69,0.00,24.07,27.42,29.78,4.76,25.38,1022.48,2038.97,3185.98,3047.04,3292.30,350.35,348.69,31.55,0000 0000 0000 0000 000000
2015-08-15 00:30:22,0.00,0.69,0.00,24.08,27.42,29.78,4.82,25.44,1022.48,2038.93,3185.97,3047.02,3292.12,350.52,349.12,31.58,0000 0000 0000 0000 000000
2015-08-15 00:35:23,0.00,0.69,0.00,24.08,27.43,29.78,4.83,25.46,1022.48,2038.96,3185.98,3047.03,3292.14,350.03,348.56,31.60,0000 0000 0000 0000 000000
2015-08-15 00:40:24,0.00,0.69,0.00,24.09,27.44,29.80,4.81,25.46,1022.48,2038.97,3185.95,3047.00,3292.09,350.30,348.64,31.63,0000 0000 0000 0000 000000
2015-08-15 00:45:26,0.00,0.69,0.00,24.09,27.45,29.78,4.81,25.47,1022.48,2038.97,3185.91,3047.01,3292.13,350.29,348.70,31.66,0000 0000 0000 0000 000000
2015-08-15 00:50:27,-0.00,0.69,0.00,24.10,27.45,29.80,4.74,25.48,1022.48,2038.96,3185.93,3047.01,3292.08,350.26,348.41,31.69,0000 0000 0000 0000 000000
2015-08-15 00:55:28,-0.00,0.69,0.00,24.12,27.45,29.80,4.78,25.39,1022.48,2038.95,3185.96,3047.01,3292.11,349.89,348.14,31.72,0000 0000 0000 0000 000000
2015-08-15 01:00:30,0.00,0.69,0.00,24.12,27.45,29.80,4.74,25.41,1022.49,2038.96,3185.94,3047.02,3292.21,349.70,348.06,31.75,0000 0000 0000 0000 000000
2015-08-15 01:05:31,0.01,0.69,0.00,24.12,27.45,29.80,4.75,25.49,1022.50,2038.96,3185.85,3047.00,3292.04,349.86,348.41,31.78,0000 0000 0000 0000 000000
2015-08-15 01:10:32,-0.03,0.69,0.00,24.14,27.45,29.80,4.78,25.48,1022.50,2038.87,3185.79,3047.00,3292.01,350.45,348.75,31.81,0000 0000 0000 0000 000000
2015-08-15 01:15:33,0.01,0.69,0.00,24.15,27.46,29.81,4.72,25.48,1022.49,2038.79,3185.50,3047.00,3292.00,349.83,348.21,31.84,0000 0000 0000 0000 000000
2015-08-15 01:20:34,0.00,0.69,0.00,24.16,27.47,29.82,4.80,25.46,1022.49,2038.87,3185.71,3047.00,3292.00,350.21,348.48,31.87,0000 0000 0000 0000 000000
2015-08-15 01:25:36,-0.02,0.69,0.00,24.15,27.47,29.82,4.77,25.45,1022.49,2038.78,3185.68,3047.00,3292.00,349.89,348.37,31.90,0000 0000 0000 0000 000000
2015-08-15 01:30:37,-0.01,0.69,0.00,24.15,27.47,29.82,4.69,25.42,1022.49,2038.63,3185.30,3046.99,3292.00,349.50,347.74,31.93,0000 0000 0000 0000 000000
2015-08-15 01:35:38,-0.02,0.69,0.00,24.17,27.47,29.83,4.72,25.43,1022.48,2038.52,3185.12,3046.98,3292.00,350.03,348.46,31.96,0000 0000 0000 0000 000000
2015-08-15 01:40:39,-0.01,0.69,0.00,24.18,27.48,29.84,4.83,25.47,1022.49,2038.36,3185.05,3046.98,3292.00,350.23,348.55,31.99,0000 0000 0000 0000 000000
2015-08-15 01:45:40,0.00,0.69,0.00,24.20,27.49,29.84,4.73,25.43,1022.49,2038.29,3185.06,3046.98,3291.99,349.68,347.96,32.01,0000 0000 0000 0000 000000
2015-08-15 01:50:41,-0.03,0.69,0.00,24.19,27.50,29.84,4.69,25.42,1022.49,2038.12,3185.02,3046.91,3291.98,349.66,348.01,32.04,0000 0000 0000 0000 000000
2015-08-15 01:55:42,0.00,0.69,0.00,24.20,27.50,29.84,4.78,25.35,1022.48,2038.11,3185.01,3046.88,3291.97,349.88,348.16,32.07,0000 0000 0000 0000 000000
2015-08-15 02:00:43,0.02,0.69,0.00,24.22,27.50,29.84,4.73,25.43,1022.49,2038.10,3185.00,3046.74,3291.96,349.95,348.30,32.10,0000 0000 0000 0000 000000
2015-08-15 02:05:44,-0.00,0.69,0.00,24.23,27.51,29.85,4.81,25.38,1022.50,2038.20,3185.00,3046.85,3291.98,350.19,348.46,32.13,0000 0000 0000 0000 000000
2015-08-15 02:10:46,-0.01,0.69,0.00,24.24,27.52,29.86,4.80,25.42,1022.50,2038.16,3185.00,3046.78,3291.96,350.17,348.56,32.16,0000 0000 0000 0000 000000
2015-08-15 02:15:47,0.01,0.69,0.00,24.25,27.52,29.87,4.89,25.48,1022.51,2038.07,3185.00,3046.42,3291.86,351.02,349.14,32.19,0000 0000 0000 0000 000000
2015-08-15 02:20:48,0.01,0.69,0.00,24.26,27.53,29.87,4.75,25.34,1022.51,2038.05,3185.00,3046.23,3291.73,349.75,347.91,32.22,0000 0000 0000 0000 000000
2015-08-15 02:25:49,0.01,0.69,0.00,24.27,27.55,29.88,4.75,25.36,1022.50,2038.03,3184.99,3046.18,3291.50,350.08,348.20,32.25,0000 0000 0000 0000 000000
2015-08-15 02:30:50,0.01,0.69,0.00,24.27,27.55,29.89,4.66,25.29,1022.52,2038.03,3184.98,3046.03,3291.19,349.07,347.44,32.28,0000 0000 0000 0000 000000
2015-08-15 02:35:51,-0.00,0.69,0.00,24.28,27.55,29.90,4.87,25.42,1022.49,2038.01,3184.98,3046.02,3291.11,350.36,348.75,32.31,0000 0000 0000 0000 000000
2015-08-15 02:40:52,0.00,0.69,0.00,24.30,27.57,29.90,4.80,25.34,1022.49,2038.01,3184.93,3046.01,3291.04,349.96,348.24,32.34,0000 0000 0000 0000 000000
2015-08-15 02:45:53,-0.00,0.69,0.00,24.32,27.57,29.90,4.79,25.33,1022.51,2038.00,3184.84,3046.00,3291.00,350.40,348.43,32.37,0000 0000 0000 0000 000000
2015-08-15 02:50:55,0.01,0.69,0.00,24.32,27.58,29.91,4.71,25.28,1022.52,2038.00,3184.57,3046.00,3291.00,349.96,348.15,32.40,0000 0000 0000 0000 000000
2015-08-15 02:55:57,0.01,0.69,0.00,24.33,27.60,29.93,4.74,25.38,1022.53,2038.00,3184.20,3046.00,3291.00,350.08,348.12,32.42,0000 0000 0000 0000 000000
2015-08-15 03:00:58,-0.00,0.69,0.00,24.34,27.60,29.94,4.79,25.36,1022.52,2038.00,3184.07,3046.00,3290.99,349.91,348.03,32.45,0000 0000 0000 0000 000000
2015-08-15 03:05:59,0.00,0.69,0.00,24.35,27.61,29.95,4.78,25.38,1022.53,2037.99,3184.03,3045.96,3290.96,350.39,348.54,32.48,0000 0000 0000 0000 000000
2015-08-15 03:11:00,0.00,0.69,0.00,24.35,27.62,29.96,4.78,25.43,1022.56,2037.99,3184.00,3045.93,3290.96,349.92,347.90,32.51,0000 0000 0000 0000 000000
2015-08-15 03:16:02,0.00,0.69,0.00,24.35,27.62,29.97,4.75,25.33,1022.56,2037.99,3184.01,3045.85,3290.87,349.84,348.19,32.54,0000 0000 0000 0000 000000
2015-08-15 03:42:29,0.00,0.00,0.00,23.63,27.65,26.78,4.20,22.90,1022.42,1838.00,3163.53,2942.46,3212.30,307.09,306.36,0.00,0000 0000 0000 0000 000000
2015-08-15 03:47:29,0.00,0.00,0.00,23.89,27.57,28.09,4.77,25.49,1022.54,2039.34,3508.16,3264.37,3563.86,350.00,348.53,0.03,0000 0000 0000 0000 000000
2015-08-15 03:52:31,0.00,0.00,0.00,24.04,27.51,28.76,4.79,25.51,1022.78,2039.01,3507.05,3263.98,3563.00,350.21,348.76,0.06,0000 0000 0000 0000 000000
2015-08-15 03:57:32,0.00,0.00,0.00,24.39,27.48,29.10,4.80,25.38,1022.93,2039.00,3506.98,3263.83,3562.59,350.57,348.88,0.09,0000 0000 0000 0000 000000
2015-08-15 04:02:33,0.01,0.00,0.00,24.56,27.47,29.26,4.81,25.35,1022.96,2039.00,3506.56,3263.25,3562.01,350.05,347.75,0.12,0000 0000 0000 0000 000000
2015-08-15 04:07:34,0.01,0.00,0.00,24.62,27.48,29.41,4.74,25.25,1022.96,2039.00,3505.78,3263.00,3561.60,349.99,347.78,0.15,0000 0000 0000 0000 000000
2015-08-15 04:12:35,0.02,0.00,0.00,24.66,27.50,29.54,4.70,25.14,1022.96,2039.00,3505.27,3262.99,3561.10,349.82,347.77,0.18,0000 0000 0000 0000 000000
2015-08-15 04:17:37,0.00,0.00,0.00,24.61,27.53,29.66,4.72,25.16,1022.97,2038.99,3505.03,3262.97,3561.00,349.74,347.67,0.21,0000 0000 0000 0000 000000
2015-08-15 04:22:38,0.01,0.00,0.00,24.57,27.56,29.75,4.79,25.09,1022.97,2038.99,3504.99,3262.76,3560.94,349.94,347.92,0.23,0000 0000 0000 0000 000000
2015-08-15 04:27:39,0.03,0.00,0.00,24.56,27.60,29.82,4.74,25.10,1022.97,2038.98,3504.96,3262.25,3560.44,350.25,348.06,0.26,0000 0000 0000 0000 000000
2015-08-15 04:32:41,0.02,0.00,0.00,24.55,27.63,29.89,4.76,25.03,1022.97,2038.97,3504.67,3262.03,3560.02,350.01,348.25,0.29,0000 0000 0000 0000 000000
2015-08-15 04:37:42,-0.03,0.00,0.00,24.54,27.67,29.95,4.77,25.18,1022.98,2038.80,3504.12,3262.00,3560.00,350.13,347.91,0.32,0000 0000 0000 0000 000000
2015-08-15 04:42:44,-0.04,0.00,0.00,24.52,27.70,29.99,4.73,24.98,1022.99,2038.49,3504.02,3261.99,3559.97,349.99,348.19,0.35,0000 0000 0000 0000 000000
2015-08-15 04:47:45,-0.04,0.00,0.00,24.54,27.73,30.04,4.75,24.96,1022.99,2038.11,3504.00,3261.92,3559.43,350.38,348.16,0.38,0000 0000 0000 0000 000000
2015-08-15 04:52:46,0.03,0.00,0.00,24.53,27.76,30.07,4.76,24.90,1022.99,2038.03,3503.94,3261.38,3559.02,349.69,347.85,0.41,0000 0000 0000 0000 000000
2015-08-15 04:57:47,0.01,0.00,0.00,24.52,27.79,30.11,4.68,24.94,1023.01,2038.00,3503.71,3261.06,3559.00,349.82,347.81,0.44,0000 0000 0000 0000 000000
2015-08-15 05:02:49,0.02,0.00,0.00,24.55,27.81,30.14,4.78,25.00,1023.00,2038.00,3503.14,3261.00,3558.93,349.84,348.19,0.47,0000 0000 0000 0000 000000
2015-08-15 05:07:50,0.01,0.00,0.00,24.57,27.84,30.16,4.76,24.97,1022.99,2038.00,3503.01,3261.00,3558.64,350.31,348.16,0.50,0000 0000 0000 0000 000000
2015-08-15 05:12:51,0.01,0.00,0.00,24.59,27.86,30.18,4.75,24.86,1022.99,2038.00,3503.00,3260.99,3558.16,350.00,347.94,0.53,0000 0000 0000 0000 000000
2015-08-15 05:17:53,0.00,0.00,0.00,24.61,27.87,30.19,4.80,24.91,1022.97,2037.99,3502.98,3260.97,3558.01,350.20,347.97,0.56,0000 0000 0000 0000 000000
2015-08-15 05:22:54,0.03,0.00,0.00,24.62,27.90,30.21,4.75,24.86,1022.96,2037.96,3502.65,3260.48,3557.99,350.01,347.79,0.59,0000 0000 0000 0000 000000
2015-08-15 05:27:55,0.01,0.00,0.00,24.61,27.91,30.23,4.79,24.83,1022.97,2037.89,3502.10,3260.09,3557.93,350.00,347.97,0.62,0000 0000 0000 0000 000000
2015-08-15 05:32:57,0.00,0.00,0.00,24.60,27.93,30.25,4.75,24.79,1022.98,2037.89,3502.03,3260.02,3557.69,350.19,348.02,0.64,0000 0000 0000 0000 000000
2015-08-15 05:37:58,-0.07,0.00,0.00,24.62,27.95,30.27,4.75,24.93,1022.97,2037.47,3502.00,3260.00,3557.07,350.10,347.93,0.67,0000 0000 0000 0000 000000
2015-08-15 05:42:59,-0.01,0.00,0.00,24.62,27.96,30.28,4.76,24.82,1022.97,2037.29,3501.98,3260.00,3557.00,349.40,347.43,0.70,0000 0000 0000 0000 000000
2015-08-15 05:48:00,-0.00,0.00,0.00,24.63,27.97,30.29,4.74,24.83,1022.97,2037.25,3501.96,3259.98,3557.00,349.62,347.68,0.73,0000 0000 0000 0000 000000
2015-08-15 05:53:01,-0.02,0.00,0.00,24.64,27.99,30.31,4.79,24.93,1022.97,2037.10,3501.82,3259.96,3556.99,350.15,348.09,0.76,0000 0000 0000 0000 000000
2015-08-15 05:58:03,0.02,0.00,0.00,24.63,28.00,30.34,4.79,24.83,1022.97,2037.07,3501.33,3259.78,3556.96,350.55,348.39,0.79,0000 0000 0000 0000 000000
2015-08-15 06:03:04,0.03,0.00,0.00,24.62,28.01,30.35,4.71,24.89,1022.97,2037.02,3501.03,3259.23,3556.56,349.39,347.64,0.82,0000 0000 0000 0000 000000
2015-08-15 06:08:05,0.01,0.00,0.00,24.62,28.02,30.36,4.78,24.77,1022.96,2037.01,3501.00,3259.03,3556.05,350.17,347.74,0.85,0000 0000 0000 0000 000000
2015-08-15 06:13:06,0.00,0.00,0.00,24.64,28.02,30.36,4.76,24.78,1022.96,2037.01,3500.99,3259.00,3556.00,349.79,347.93,0.88,0000 0000 0000 0000 000000
2015-08-15 06:18:08,0.00,0.00,0.00,24.64,28.04,30.37,4.78,24.81,1022.97,2037.00,3500.86,3259.00,3556.00,350.21,347.90,0.91,0000 0000 0000 0000 000000
2015-08-15 06:23:09,0.01,0.00,0.00,24.64,28.05,30.38,4.73,24.85,1022.96,2037.00,3500.31,3258.98,3555.98,349.88,347.73,0.94,0000 0000 0000 0000 000000
2015-08-15 06:28:10,0.00,0.00,0.00,24.65,28.05,30.38,4.79,24.88,1022.96,2037.00,3500.18,3258.97,3555.96,350.19,348.21,0.97,0000 0000 0000 0000 000000
2015-08-15 06:33:11,0.02,0.00,0.00,24.64,28.05,30.39,4.74,24.81,1022.96,2037.00,3500.02,3258.83,3555.69,349.89,347.82,1.00,0000 0000 0000 0000 000000
2015-08-15 06:38:13,0.03,0.00,0.00,24.65,28.07,30.39,4.76,24.92,1022.96,2037.00,3500.01,3258.60,3555.38,349.74,347.74,1.03,0000 0000 0000 0000 000000
2015-08-15 06:43:14,0.00,0.00,0.00,24.65,28.07,30.41,4.81,24.79,1022.97,2037.00,3499.99,3258.21,3555.10,350.18,348.08,1.05,0000 0000 0000 0000 000000
2015-08-15 06:48:15,0.00,0.01,0.00,24.65,28.07,30.41,4.82,24.81,1022.96,2037.00,3499.99,3258.10,3555.04,350.57,348.31,1.08,0000 0000 0000 0000 000000
2015-08-15 06:53:17,0.00,0.01,0.00,24.65,28.07,30.41,4.76,24.83,1022.97,2036.99,3499.98,3258.06,3555.01,350.25,348.04,1.11,0000 0000 0000 0000 000000
2015-08-15 06:58:18,-0.00,0.01,0.00,24.65,28.09,30.43,4.78,24.81,1022.96,2036.99,3499.99,3258.07,3555.00,350.14,347.99,1.14,0000 0000 0000 0000 000000
2015-08-15 07:03:19,0.00,0.01,0.00,24.65,28.10,30.41,4.78,24.82,1022.96,2036.99,3499.98,3258.04,3555.00,349.84,347.83,1.17,0000 0000 0000 0000 000000
2015-08-15 07:08:20,0.00,0.01,0.00,24.66,28.10,30.42,4.77,24.78,1022.97,2036.99,3499.92,3258.01,3555.00,349.88,347.89,1.20,0000 0000 0000 0000 000000
2015-08-15 07:13:22,0.00,0.01,0.00,24.67,28.10,30.41,4.75,24.75,1022.96,2036.98,3499.89,3258.00,3555.00,349.31,347.32,1.23,0000 0000 0000 0000 000000
2015-08-15 07:18:23,0.00,0.01,0.00,24.67,28.10,30.43,4.81,24.77,1022.96,2036.98,3499.69,3258.00,3554.99,350.50,348.44,1.26,0000 0000 0000 0000 000000
2015-08-15 07:23:24,0.00,0.01,0.00,24.67,28.11,30.44,4.74,24.68,1022.96,2036.98,3499.55,3258.00,3554.99,349.61,347.43,1.29,0000 0000 0000 0000 000000
2015-08-15 07:28:25,0.01,0.01,0.00,24.67,28.12,30.44,4.79,24.79,1022.96,2036.98,3499.16,3258.00,3554.97,350.12,347.94,1.32,0000 0000 0000 0000 000000
2015-08-15 07:33:26,-0.00,0.01,0.00,24.70,28.12,30.44,4.77,24.78,1022.96,2036.98,3499.15,3258.00,3554.96,349.37,347.38,1.35,0000 0000 0000 0000 000000
2015-08-15 07:38:27,0.02,0.01,0.00,24.72,28.12,30.44,4.72,24.93,1022.96,2036.97,3499.02,3257.97,3554.57,349.45,347.23,1.38,0000 0000 0000 0000 000000
2015-08-15 07:43:28,-0.01,0.01,0.00,24.74,28.12,30.44,4.76,24.63,1022.97,2036.97,3499.01,3257.99,3554.64,349.69,347.37,1.41,0000 0000 0000 0000 000000
2015-08-15 07:48:29,0.00,0.01,0.00,24.75,28.14,30.46,4.79,24.70,1022.96,2036.97,3499.01,3257.99,3554.74,350.49,348.18,1.44,0000 0000 0000 0000 000000
2015-08-15 07:53:31,0.01,0.01,0.00,24.77,28.15,30.45,4.73,24.66,1022.96,2036.97,3499.00,3257.99,3554.51,349.59,347.57,1.46,0000 0000 0000 0000 000000
2015-08-15 07:58:32,0.00,0.01,0.00,24.77,28.15,30.46,4.72,24.66,1022.96,2036.93,3499.00,3257.96,3554.09,349.74,347.53,1.49,0000 0000 0000 0000 000000
2015-08-15 08:03:33,-0.00,0.01,0.00,24.79,28.15,30.47,4.73,24.60,1022.96,2036.93,3499.00,3257.94,3554.03,350.08,347.89,1.52,0000 0000 0000 0000 000000
2015-08-15 08:08:34,0.00,0.01,0.00,24.79,28.17,30.47,4.75,24.63,1022.96,2036.90,3499.00,3257.89,3554.03,349.97,347.82,1.55,0000 0000 0000 0000 000000
2015-08-15 08:13:36,-0.00,0.01,0.00,24.81,28.17,30.47,4.78,24.67,1022.96,2036.84,3498.97,3257.67,3554.00,350.21,347.99,1.58,0000 0000 0000 0000 000000
2015-08-15 08:18:37,-0.04,0.01,0.00,24.83,28.17,30.50,4.73,24.63,1022.96,2036.53,3498.94,3257.27,3554.00,350.18,347.75,1.61,0000 0000 0000 0000 000000
2015-08-15 08:23:38,-0.01,0.00,0.00,24.85,28.18,30.50,4.71,24.62,1022.96,2036.26,3498.76,3257.05,3553.99,349.43,347.39,1.64,0000 0000 0000 0000 000000
2015-08-15 08:28:40,0.00,0.01,0.00,24.85,28.20,30.51,4.73,24.63,1022.96,2036.36,3498.67,3257.05,3553.99,349.84,347.60,1.67,0000 0000 0000 0000 000000
2015-08-15 08:33:41,-0.01,0.00,0.00,24.85,28.20,30.52,4.75,24.68,1022.96,2036.17,3498.10,3257.00,3553.93,350.25,347.84,1.70,0000 0000 0000 0000 000000
2015-08-15 08:38:42,0.01,0.00,0.00,24.85,28.20,30.53,4.79,24.77,1022.96,2036.07,3497.98,3257.00,3553.56,349.86,347.76,1.73,0000 0000 0000 0000 000000
2015-08-15 08:43:43,0.04,0.01,0.00,24.86,28.22,30.54,4.77,24.70,1022.96,2036.05,3497.19,3256.72,3553.02,350.06,347.62,1.76,0000 0000 0000 0000 000000
2015-08-15 08:48:45,0.01,0.01,0.00,24.86,28.22,30.54,4.76,24.58,1022.96,2036.05,3497.05,3256.47,3553.00,350.02,347.78,1.79,0000 0000 0000 0000 000000
2015-08-15 08:53:46,0.00,0.01,0.00,24.87,28.24,30.55,4.68,24.59,1022.96,2036.01,3497.01,3256.30,3552.99,349.68,347.13,1.82,0000 0000 0000 0000 000000
2015-08-15 08:58:47,-0.00,0.01,0.00,24.87,28.25,30.57,4.77,24.65,1022.96,2036.02,3497.01,3256.23,3552.99,350.40,348.11,1.85,0000 0000 0000 0000 000000
2015-08-15 09:03:49,0.01,0.01,0.00,24.87,28.25,30.58,4.73,24.51,1022.96,2036.01,3497.00,3256.08,3552.96,350.36,347.99,1.88,0000 0000 0000 0000 000000
2015-08-15 09:08:50,-0.00,0.01,0.00,24.88,28.26,30.59,4.74,24.57,1022.97,2036.01,3497.00,3256.06,3552.96,350.24,348.12,1.90,0000 0000 0000 0000 000000
2015-08-15 09:13:51,0.00,0.01,0.00,24.88,28.27,30.59,4.77,24.56,1022.96,2036.01,3497.00,3256.02,3552.92,349.95,347.53,1.93,0000 0000 0000 0000 000000
2015-08-15 09:18:52,0.00,0.01,0.00,24.89,28.27,30.59,4.76,24.57,1022.96,2036.00,3496.99,3256.00,3552.71,350.48,348.07,1.96,0000 0000 0000 0000 000000
2015-08-15 09:23:53,0.00,0.01,0.00,24.90,28.29,30.61,4.77,24.58,1022.97,2036.00,3496.99,3256.01,3552.63,350.80,348.36,1.99,0000 0000 0000 0000 000000
2015-08-15 09:28:54,0.00,0.01,0.00,24.92,28.30,30.62,4.75,24.65,1022.96,2036.01,3496.98,3256.00,3552.58,350.05,347.65,2.02,0000 0000 0000 0000 000000
2015-08-15 09:33:56,0.01,0.01,0.00,24.95,28.30,30.62,4.76,24.60,1022.98,2036.00,3496.98,3256.00,3552.28,350.78,348.56,2.05,0000 0000 0000 0000 000000
2015-08-15 09:38:57,0.00,0.01,0.00,24.95,28.31,30.63,4.77,24.75,1022.97,2036.00,3496.83,3256.00,3552.06,349.95,347.55,2.08,0000 0000 0000 0000 000000
2015-08-15 09:43:59,0.01,0.01,0.00,24.96,28.32,30.63,4.87,24.61,1022.97,2036.00,3496.55,3255.99,3552.01,350.83,348.54,2.11,0000 0000 0000 0000 000000
2015-08-15 09:49:00,0.01,0.01,0.00,24.95,28.32,30.64,4.71,24.54,1022.97,2036.00,3496.19,3255.96,3552.00,349.65,347.28,2.14,0000 0000 0000 0000 000000
2015-08-15 09:54:01,0.00,0.01,0.00,24.95,28.34,30.66,4.75,24.64,1022.96,2035.99,3496.08,3255.93,3552.00,349.80,347.37,2.17,0000 0000 0000 0000 000000
2015-08-15 09:59:02,0.01,0.01,0.00,24.96,28.35,30.67,4.75,24.67,1022.97,2035.99,3496.02,3255.76,3552.00,349.46,346.97,2.20,0000 0000 0000 0000 000000
2015-08-15 10:04:04,-0.00,0.01,0.00,24.97,28.35,30.67,4.72,24.57,1022.96,2035.99,3496.01,3255.67,3552.00,350.30,347.80,2.23,0000 0000 0000 0000 000000
2015-08-15 10:09:05,0.01,0.01,0.00,24.97,28.36,30.68,4.73,24.66,1022.96,2035.98,3496.01,3255.57,3551.98,350.29,347.70,2.26,0000 0000 0000 0000 000000
2015-08-15 10:14:06,0.00,0.01,0.00,24.97,28.37,30.69,4.73,24.69,1022.96,2035.99,3496.01,3255.48,3551.96,350.13,347.77,2.28,0000 0000 0000 0000 000000
2015-08-15 10:19:07,0.01,0.01,0.00,24.99,28.37,30.69,4.76,24.62,1022.96,2035.98,3496.00,3255.24,3551.94,350.21,347.86,2.31,0000 0000 0000 0000 000000
2015-08-15 10:24:08,0.00,0.01,0.00,24.98,28.38,30.68,4.75,24.60,1022.96,2035.96,3496.00,3255.05,3551.77,349.95,347.40,2.34,0000 0000 0000 0000 000000
2015-08-15 10:29:10,0.00,0.01,0.00,24.99,28.40,30.69,4.80,24.58,1022.96,2035.95,3496.00,3255.08,3551.67,350.13,347.49,2.37,0000 0000 0000 0000 000000
2015-08-15 10:34:11,0.01,0.01,0.00,24.97,28.40,30.70,4.70,24.61,1022.96,2035.94,3495.99,3255.04,3551.66,349.90,347.45,2.40,0000 0000 0000 0000 000000
2015-08-15 10:39:12,-0.02,0.01,0.00,24.97,28.40,30.72,4.74,24.72,1022.96,2035.85,3495.98,3255.02,3551.26,349.93,347.54,2.43,0000 0000 0000 0000 000000
2015-08-15 10:44:13,-0.00,0.01,0.00,24.97,28.41,30.73,4.75,24.62,1022.96,2035.78,3495.99,3255.01,3551.07,349.52,347.03,2.46,0000 0000 0000 0000 000000
2015-08-15 10:49:14,-0.02,0.01,0.00,24.97,28.42,30.74,4.75,24.62,1022.96,2035.63,3495.94,3255.00,3551.05,349.84,347.41,2.49,0000 0000 0000 0000 000000
2015-08-15 10:54:15,0.02,0.01,0.00,24.96,28.42,30.74,4.71,24.60,1022.96,2035.65,3495.91,3255.00,3551.03,349.62,347.30,2.52,0000 0000 0000 0000 000000
2015-08-15 10:59:17,-0.01,0.01,0.00,24.95,28.42,30.75,4.77,24.63,1022.96,2035.62,3495.78,3255.00,3551.01,350.00,347.66,2.55,0000 0000 0000 0000 000000
2015-08-15 11:04:18,-0.01,0.01,0.00,24.95,28.42,30.77,4.73,24.57,1022.96,2035.55,3495.41,3255.00,3551.00,350.14,347.71,2.58,0000 0000 0000 0000 000000
2015-08-15 11:09:19,-0.01,0.01,0.00,24.92,28.43,30.77,4.72,24.52,1022.96,2035.42,3495.16,3255.00,3551.00,350.11,347.38,2.61,0000 0000 0000 0000 000000
2015-08-15 11:14:20,-0.00,0.01,0.00,24.92,28.44,30.77,4.83,24.66,1022.96,2035.35,3495.17,3254.99,3551.00,350.16,347.61,2.64,0000 0000 0000 0000 000000
2015-08-15 11:19:21,-0.00,0.01,0.00,24.90,28.45,30.77,4.78,24.55,1022.96,2035.30,3495.11,3254.98,3551.00,350.33,347.93,2.67,0000 0000 0000 0000 000000
2015-08-15 11:24:23,-0.00,0.01,0.00,24.90,28.45,30.78,4.80,24.59,1022.96,2035.29,3495.04,3254.98,3550.98,350.28,347.98,2.69,0000 0000 0000 0000 000000
2015-08-15 11:29:24,-0.02,0.01,0.00,24.89,28.45,30.78,4.80,24.59,1022.96,2035.26,3495.07,3254.97,3550.98,350.13,347.73,2.72,0000 0000 0000 0000 000000
2015-08-15 11:34:25,-0.01,0.01,0.00,24.87,28.45,30.77,4.76,24.48,1022.96,2035.12,3495.01,3254.95,3550.97,350.21,347.87,2.75,0000 0000 0000 0000 000000
2015-08-15 11:39:26,-0.00,0.01,0.00,24.87,28.45,30.76,4.75,24.61,1022.96,2035.06,3495.01,3254.89,3550.87,350.18,347.93,2.78,0000 0000 0000 0000 000000
2015-08-15 11:44:27,0.01,0.01,0.00,24.87,28.45,30.76,4.74,24.61,1022.98,2035.14,3495.02,3254.95,3550.95,350.18,347.91,2.81,0000 0000 0000 0000 000000
2015-08-15 11:49:29,0.02,0.01,0.00,24.86,28.45,30.77,4.77,24.52,1022.98,2035.18,3495.02,3254.96,3550.96,349.83,347.55,2.84,0000 0000 0000 0000 000000
2015-08-15 11:54:30,0.02,0.01,0.00,24.85,28.45,30.77,4.75,24.51,1022.96,2035.32,3495.03,3254.97,3550.96,349.96,347.73,2.87,0000 0000 0000 0000 000000
2015-08-15 11:59:31,-0.03,0.01,0.00,24.83,28.44,30.77,4.78,24.48,1022.96,2035.20,3495.01,3254.97,3550.96,350.26,347.92,2.90,0000 0000 0000 0000 000000
2015-08-15 12:04:32,-0.01,0.01,0.00,24.82,28.44,30.77,4.78,24.63,1022.96,2035.16,3495.00,3254.91,3550.91,349.90,347.65,2.93,0000 0000 0000 0000 000000
2015-08-15 12:09:33,0.00,0.01,0.00,24.81,28.43,30.76,4.73,24.53,1022.96,2035.16,3495.01,3254.94,3550.91,349.75,347.52,2.96,0000 0000 0000 0000 000000
2015-08-15 12:14:34,0.02,0.01,0.00,24.80,28.42,30.76,4.73,24.58,1022.96,2035.30,3495.01,3254.98,3550.93,349.83,347.37,2.99,0000 0000 0000 0000 000000
2015-08-15 12:19:36,-0.02,0.01,0.00,24.80,28.42,30.76,4.68,24.59,1022.96,2035.22,3495.01,3254.97,3550.90,349.39,347.30,3.02,0000 0000 0000 0000 000000
2015-08-15 12:24:36,0.01,0.01,0.00,24.78,28.42,30.75,4.80,24.62,1022.96,2035.20,3495.00,3254.93,3550.85,350.24,348.04,3.05,0000 0000 0000 0000 000000
2015-08-15 12:29:38,0.04,0.01,0.00,24.77,28.42,30.75,4.76,24.65,1022.97,2035.41,3495.00,3254.95,3550.87,349.79,347.67,3.08,0000 0000 0000 0000 000000
2015-08-15 12:34:39,-0.04,0.01,0.00,24.77,28.42,30.75,4.83,24.55,1022.96,2035.29,3495.00,3254.98,3550.93,350.12,348.16,3.10,0000 0000 0000 0000 000000
2015-08-15 12:39:40,-0.00,0.01,0.00,24.75,28.41,30.73,4.78,24.62,1022.96,2035.18,3494.99,3254.90,3550.63,350.08,347.96,3.13,0000 0000 0000 0000 000000
2015-08-15 12:44:42,0.06,0.01,0.00,24.74,28.40,30.73,4.75,24.54,1022.96,2035.60,3495.00,3254.98,3550.96,349.86,347.68,3.16,0000 0000 0000 0000 000000
2015-08-15 12:49:43,0.02,0.01,0.00,24.72,28.40,30.72,4.87,24.52,1022.96,2035.78,3495.00,3254.98,3550.96,350.21,347.92,3.19,0000 0000 0000 0000 000000
2015-08-15 12:54:44,0.01,0.01,0.00,24.71,28.40,30.72,4.77,24.52,1022.96,2035.90,3495.00,3254.98,3550.98,350.16,348.10,3.22,0000 0000 0000 0000 000000
2015-08-15 12:59:45,0.00,0.01,0.00,24.70,28.40,30.74,4.79,24.58,1022.96,2035.88,3495.00,3254.98,3550.99,350.40,348.42,3.25,0000 0000 0000 0000 000000
2015-08-15 13:04:47,-0.00,0.01,0.00,24.70,28.39,30.72,4.76,24.60,1022.95,2035.89,3495.00,3254.98,3550.94,350.17,348.07,3.28,0000 0000 0000 0000 000000
2015-08-15 13:09:47,0.00,0.01,0.00,24.69,28.37,30.72,4.76,24.49,1022.94,2035.89,3495.00,3254.93,3550.94,350.13,348.14,3.31,0000 0000 0000 0000 000000
2015-08-15 13:14:49,0.00,0.01,0.00,24.67,28.37,30.71,4.76,24.55,1022.93,2035.95,3494.99,3254.98,3550.97,350.16,348.02,3.34,0000 0000 0000 0000 000000
2015-08-15 13:19:50,0.01,0.01,0.00,24.66,28.37,30.71,4.73,24.46,1022.89,2035.98,3494.99,3254.98,3550.99,349.98,348.10,3.37,0000 0000 0000 0000 000000